Погода в Михайловке

Россия / Оренбургская область     53°40′30″N   52°27′48″E
темп.,
°C
ветер,
м/с
пор.,
м/с
влажн.,
%
обл.,
%
осадки,
мм/ч
давл.,
гПа
погр.,
м
6 мая, чт
чт623:00+7з612685 0.1 1012493
02:00+6з411761 0.0 1013347
05:00+4зюз24815 0.0 101568
08:00+7зюз35751 0.0 1016249
11:00+13з57565 0.0 10171008
14:00+15з685297 0.0 10171758
17:00+17з465099 0.1 10181944
20:00+15юз356798 0.1 1018154
7 мая, пт
пт723:00+13ююз226682 0.1 101930
02:00+12ю236652 0.0 101937
05:00+9ююв227197 0.0 102012
08:00+11ююв2569100 0.0 1021205
11:00+16ю4651100 0.0 1020987
14:00+19ююз5740100 0.0 10192414
17:00+18юз3549100 0.0 1018236
20:00+16ююв2462100 0.0 101873
8 мая, сб
сб823:00+14ю2364100 0.0 101845
02:00+13ю2266100 0.0 101833
05:00+13юв2264100 0.0 101820
08:00+13ююз1268100 0.0 101998
11:00+17ююз2251100 0.1 1018922
14:00+19ююз2345100 0.0 10182100
17:00+15ююв466881 0.2 1018178
20:00+16ююв11615 0.0 101714
9 мая, вс
вс923:00+12юв22736 0.0 101811
02:00+11юв217511 0.0 101710
05:00+10юв11765 0.0 101710
08:00+13ююв23688 0.0 1018135
11:00+18ююв4550100 0.0 1017720
14:00+21ю4438100 0.0 10161931
17:00+21ю443711 0.0 10161966
20:00+19ююв355591 0.0 101693
10 мая, пн
пн1023:00+15юв2257100 0.0 101712
02:00+14юв2260100 0.0 101710
05:00+13вюв116550 0.0 101910
08:00+15вюв126091 0.0 1020107
11:00+20вюв2347100 0.0 1021573
14:00+23вюв333681 0.0 10212110
17:00+24вюв223598 0.0 10222310
20:00+21св1148100 0.0 102312